[[{"header":{"parameterUnit":"m.s-1","parameterCategory":2,"la1":30.2992,"la2":30.254,"lo1":-89.0895,"lo2":-89.0443,"dy":0.0025,"dx":0.0025,"nx":19,"ny":19,"refTime":"2026-04-15T09:00:00:Z","depth":"0","parameterNumber":2,"parameterNumberName":"U-component_of_CURRENTS"},"data":[0,0,0,0.1754,0.1756,0.1811,0.1811,0.1797,0.1796,0,0,0,0,0,0,0,0,0,0,0,0.1725,0.1725,0.1754,0.1756,0.1811,0.1811,0.1797,0.1796,0,0,0,0,0,0,0,0,0,0,0,0.1725,0.1725,0.1726,0.1756,0.1811,0.1811,0.1797,0.1774,0,0,0,0,0,0,0,0,0,0,0.1731,0.1733,0.1725,0.1726,0.1757,0.1811,0.1811,0.1774,0.1776,0.175,0,0.1759,0,0.1783,0.1794,0.1794,0,0,0,0.1748,0.1732,0.1735,0.1726,0.1757,0.1811,0.1784,0.1776,0.1777,0.1751,0.1759,0.176,0.1783,0.1794,0.1794,0.1854,0.1855,0,0,0.1745,0.1744,0.1734,0.1736,0.1771,0.1782,0.1786,0.1778,0.1783,0.1759,0.176,0.1783,0.1794,0.1793,0.1853,0.1854,0,0,0,0.1742,0.1742,0.1748,0.1736,0.1756,0.1784,0.1788,0.1784,0.1783,0.176,0.1783,0.1793,0.1793,0.1852,0.1854,0.187,0,0,0,0.174,0.174,0.1746,0.1747,0.1757,0.1787,0.1795,0.1783,0.1784,0.1783,0.1793,0.1793,0.1851,0.1853,0.1867,0.1831,0,0,0,0.1723,0.1739,0.1743,0.1747,0.1774,0.1788,0.1787,0.1784,0.1797,0.1794,0.1793,0.185,0.1853,0.1865,0.1829,0.1832,0,0,0,0.1722,0.1731,0.1743,0.1766,0.1774,0.182,0.1788,0.1821,0.1825,0.1793,0.1851,0.1853,0.1864,0.1827,0.1831,0.1702,0.1696,0,0,0.173,0.1732,0.1746,0.1758,0.1791,0.1811,0.1857,0.1846,0.1849,0.1843,0.1846,0.1868,0.1829,0.1832,0.1827,0.1817,0,0,0,0.1747,0.1751,0.1767,0.179,0.1826,0.1849,0.1872,0.189,0.1912,0.1864,0.1908,0.1882,0.1883,0.1805,0.1799,0.1483,0.1863,0.1863,0.1863,0.1722,0.1747,0.1767,0.1798,0.1831,0.1884,0.1909,0.1938,0.1943,0.1979,0.1927,0.1978,0.1899,0.1891,0.157,0.1987,0.1987,0.1987,0.1987,0.1716,0.1721,0.1755,0.178,0.1812,0.185,0.1917,0.1943,0.1983,0.1991,0.1993,0.1865,0.1884,0.1544,0.1989,0.1989,0.1988,0.1988,0.1988,0.1685,0.169,0.1711,0.1743,0.1765,0.1817,0.1838,0.1906,0.1963,0.1979,0.1891,0.1888,0.1557,0.1989,0.1989,0.1989,0.1989,0.1989,0.1989,0.164,0.1663,0.1672,0.1708,0.1712,0.1735,0.1796,0.1823,0.1849,0.1872,0.1871,0.1528,0.1978,0.194,0.1987,0.1987,0.1988,0.1988,0.1988,0.1596,0.1621,0.1625,0.1632,0.1644,0.1598,0.1679,0.1666,0.1715,0.1701,0.1357,0.1821,0.179,0.1794,0.1753,0.1749,0.1749,0.1749,0.1749,0.156,0.1578,0.1568,0.1557,0.1548,0.153,0.1409,0.1374,0.1234,0.106,0.1081,0.1011,0.1035,0.0956,0.0979,0.092,0.0705,0.0703,0.0701,0.1526,0.1533,0.1496,0.1501,0.1486,0.1413,0.1212,0.0951,0.0674,0.063,0.0663,0.0707,0.0581,0.0644,0.0508,0.0566,0.0469,0,0]},{"header":{"parameterUnit":"m.s-1","parameterCategory":2,"la1":30.2992,"la2":30.254,"lo1":-89.0895,"lo2":-89.0443,"dy":0.0025,"dx":0.0025,"nx":19,"ny":19,"refTime":"2026-04-15T09:00:00:Z","depth":"0","parameterNumber":3,"parameterNumberName":"V-component_of_CURRENTS"},"data":[0,0,0,0.0344,0.0345,0.0375,0.0375,0.0442,0.0442,0,0,0,0,0,0,0,0,0,0,0,0.0331,0.0332,0.0344,0.0345,0.0375,0.0375,0.0442,0.0442,0,0,0,0,0,0,0,0,0,0,0,0.0331,0.0331,0.0332,0.0345,0.0375,0.0375,0.0441,0.0412,0,0,0,0,0,0,0,0,0,0,0.0379,0.0361,0.0331,0.0332,0.0345,0.0375,0.0375,0.041,0.0414,0.0437,0,0.044,0,0.0445,0.0448,0.0448,0,0,0,0.0344,0.0358,0.0369,0.0332,0.0346,0.0375,0.0361,0.0412,0.0416,0.0442,0.0441,0.0443,0.0447,0.0448,0.0448,0.0598,0.0599,0,0,0.0343,0.0335,0.0366,0.0372,0.0352,0.036,0.0362,0.0414,0.0417,0.0441,0.0445,0.0448,0.0449,0.0449,0.0597,0.0598,0,0,0,0.0339,0.0334,0.0344,0.0369,0.0374,0.0361,0.0363,0.0414,0.0418,0.0445,0.0448,0.0449,0.045,0.0596,0.0598,0.0596,0,0,0,0.0338,0.0332,0.0343,0.0338,0.0372,0.039,0.0362,0.0414,0.042,0.0448,0.0449,0.0451,0.0595,0.0597,0.0594,0.0589,0,0,0,0.033,0.0331,0.0335,0.0338,0.0352,0.0389,0.0396,0.0416,0.0423,0.0448,0.0451,0.0594,0.0596,0.0591,0.0586,0.0656,0,0,0,0.0321,0.0329,0.0334,0.0345,0.0352,0.0395,0.0395,0.0427,0.045,0.0449,0.0595,0.0597,0.0591,0.0584,0.0654,0.071,0.0727,0,0,0.0327,0.033,0.0337,0.0342,0.0372,0.039,0.0445,0.047,0.0502,0.0577,0.058,0.0595,0.0586,0.0656,0.0855,0.0867,0,0,0,0.0336,0.034,0.0352,0.0367,0.0399,0.0443,0.0475,0.0517,0.0592,0.0528,0.0647,0.0642,0.0686,0.0716,0.0727,0.0717,0.0609,0.0609,0.0609,0.0349,0.0355,0.0371,0.0391,0.0423,0.0489,0.0542,0.0615,0.0626,0.0681,0.0679,0.0783,0.0817,0.0825,0.0815,0.0727,0.0727,0.0727,0.0727,0.0364,0.0373,0.0385,0.04,0.0449,0.0502,0.0613,0.0647,0.0764,0.0748,0.0791,0.076,0.0837,0.0821,0.0728,0.0728,0.0727,0.0727,0.0727,0.0376,0.038,0.038,0.0406,0.0454,0.0517,0.0626,0.0696,0.0771,0.0814,0.0889,0.0889,0.0843,0.0848,0.0848,0.0849,0.0849,0.0849,0.0849,0.0391,0.0391,0.0403,0.0422,0.0449,0.0519,0.0646,0.0736,0.0861,0.0911,0.0912,0.09,0.0821,0.0779,0.0854,0.0853,0.0853,0.0852,0.0852,0.0402,0.041,0.0428,0.0446,0.0512,0.0601,0.0694,0.0878,0.0972,0.1045,0.1034,0.0985,0.0998,0.0991,0.0956,0.1072,0.1072,0.1072,0.1072,0.0421,0.0422,0.0464,0.0504,0.0575,0.0649,0.0827,0.0978,0.1102,0.1146,0.1118,0.1085,0.1077,0.1092,0.1082,0.1048,0.1185,0.1185,0.1185,0.0434,0.0446,0.0483,0.0524,0.0603,0.0715,0.0874,0.1002,0.1144,0.1185,0.1094,0.109,0.1032,0.1019,0.1031,0.1018,0.0958,0,0]}],[{"header":{"parameterUnit":"m.s-1","parameterCategory":2,"la1":30.2992,"la2":30.254,"lo1":-89.0895,"lo2":-89.0443,"dy":0.0025,"dx":0.0025,"nx":19,"ny":19,"refTime":"2026-04-15T09:00:00:Z","depth":"2","parameterNumber":2,"parameterNumberName":"U-component_of_CURRENTS"},"data":[0,0,0,0.1511,0.1512,0.157,0.157,0.1648,0.1648,0,0,0,0,0,0,0,0,0,0,0,0.1506,0.1506,0.1511,0.1512,0.157,0.157,0.1648,0.1648,0,0,0,0,0,0,0,0,0,0,0,0.1506,0.1506,0.1507,0.1512,0.157,0.157,0.1647,0.1607,0,0,0,0,0,0,0,0,0,0,0.1551,0.1522,0.1506,0.1507,0.1512,0.157,0.157,0.1605,0.1609,0.1618,0,0.1629,0,0.1628,0.1652,0.1652,0,0,0,0.1527,0.1518,0.1547,0.1507,0.1513,0.1569,0.1548,0.1607,0.1612,0.1623,0.163,0.1633,0.1629,0.1652,0.1653,0.1754,0.1754,0,0,0.1524,0.1503,0.1544,0.1551,0.1531,0.1546,0.1549,0.161,0.1608,0.1631,0.1634,0.163,0.1653,0.1653,0.1753,0.1754,0,0,0,0.1504,0.1501,0.1529,0.1548,0.1551,0.1547,0.1551,0.1606,0.162,0.1635,0.1631,0.1653,0.1654,0.1752,0.1753,0.1829,0,0,0,0.1503,0.1489,0.1528,0.1514,0.155,0.1572,0.1545,0.1616,0.1622,0.1631,0.1653,0.1654,0.1752,0.1753,0.1825,0.1806,0,0,0,0.1503,0.1487,0.1499,0.1513,0.1531,0.1572,0.1589,0.1618,0.1619,0.1652,0.1655,0.1751,0.1753,0.1822,0.1802,0.1807,0,0,0,0.1474,0.1505,0.1499,0.1529,0.1531,0.1597,0.1588,0.1655,0.1693,0.1653,0.1752,0.1753,0.1821,0.18,0.1805,0.1604,0.1597,0,0,0.1503,0.1507,0.1528,0.1524,0.1568,0.159,0.1653,0.1707,0.1715,0.1732,0.1735,0.1826,0.1802,0.1806,0.1697,0.1686,0,0,0,0.1531,0.1541,0.1556,0.1573,0.1617,0.1657,0.1705,0.1746,0.1817,0.1739,0.1838,0.1819,0.182,0.1695,0.1688,0.1761,0.1761,0.1761,0.176,0.1507,0.1539,0.1572,0.1614,0.1653,0.1723,0.1779,0.1838,0.1854,0.1914,0.1892,0.1954,0.1826,0.1817,0.1931,0.1931,0.1932,0.1932,0.1932,0.1528,0.1549,0.1583,0.1641,0.1688,0.1753,0.1844,0.1894,0.1967,0.1974,0.1973,0.1794,0.1813,0.1938,0.1937,0.1936,0.1936,0.1935,0.1935,0.1515,0.1533,0.1578,0.1645,0.1712,0.1781,0.1838,0.1924,0.1994,0.2025,0.1864,0.1859,0.1957,0.2036,0.2036,0.2036,0.2036,0.2036,0.2036,0.148,0.1524,0.1572,0.1648,0.1691,0.1756,0.1846,0.1881,0.1886,0.1886,0.1884,0.1987,0.1984,0.1961,0.2035,0.2036,0.2036,0.2036,0.2036,0.1456,0.1484,0.1541,0.1588,0.1669,0.1644,0.1736,0.1702,0.1751,0.1713,0.1797,0.1803,0.1739,0.1742,0.1713,0.1718,0.1718,0.1718,0.1718,0.1417,0.1441,0.1491,0.1537,0.158,0.1586,0.1432,0.1299,0.1353,0.1296,0.1314,0.1251,0.1273,0.118,0.1196,0.1154,0.1014,0.1013,0.1011,0.137,0.1398,0.1412,0.1482,0.1525,0.1472,0.1201,0.0806,0.0722,0.0983,0.1186,0.1672,0.1627,0.1643,0.1538,0.1549,0.1497,0,0]},{"header":{"parameterUnit":"m.s-1","parameterCategory":2,"la1":30.2992,"la2":30.254,"lo1":-89.0895,"lo2":-89.0443,"dy":0.0025,"dx":0.0025,"nx":19,"ny":19,"refTime":"2026-04-15T09:00:00:Z","depth":"2","parameterNumber":3,"parameterNumberName":"V-component_of_CURRENTS"},"data":[0,0,0,0.0003,0.0002,-0.0041,-0.0041,0.0083,0.0085,0,0,0,0,0,0,0,0,0,0,0,0.0029,0.0029,0.0003,0.0002,-0.0041,-0.0041,0.0083,0.0085,0,0,0,0,0,0,0,0,0,0,0,0.0029,0.0029,0.0029,0.0001,-0.0041,-0.0041,0.0083,0.0074,0,0,0,0,0,0,0,0,0,0,0.0095,0.0083,0.0029,0.0028,0.0001,-0.0041,-0.0041,0.0072,0.0075,0.0149,0,0.0134,0,0.0105,0.0096,0.0096,0,0,0,0.0017,0.0081,0.0069,0.0028,0.0001,-0.0041,-0.0017,0.0072,0.0076,0.0153,0.0135,0.0138,0.0107,0.0097,0.0098,0.0258,0.0258,0,0,0.0019,0.0029,0.0066,0.0071,-0.0016,-0.0016,-0.0019,0.0072,0.0079,0.0135,0.014,0.0109,0.0098,0.0099,0.0257,0.0258,0,0,0,0.0016,0.0031,0.0013,0.0068,0.0041,-0.0018,-0.0021,0.0074,0.0068,0.0141,0.0111,0.0099,0.0101,0.0256,0.0257,0.0277,0,0,0,0.0018,0.0027,0.0014,0.0021,0.0038,0.0031,-0.002,0.0062,0.007,0.011,0.0099,0.0102,0.0256,0.0257,0.0275,0.0277,0,0,0,0.0032,0.0028,0.0021,0.0021,-0.0007,0.0028,0.0026,0.0062,0.0053,0.0096,0.0103,0.0255,0.0257,0.0273,0.0275,0.0398,0,0,0,0.0048,0.0028,0.0021,-0.0007,-0.0006,-0.0027,0.0025,0.0033,0.0065,0.01,0.0256,0.0257,0.0273,0.0273,0.0395,0.0414,0.0431,0,0,0.003,0.0026,0.0008,0.0,-0.0029,-0.002,-0.0014,0.0054,0.0118,0.024,0.0242,0.0275,0.0275,0.0398,0.0487,0.0501,0,0,0,0.0007,-0.0004,-0.0014,-0.0035,-0.0045,-0.002,0.0009,0.007,0.0198,0.0138,0.0296,0.0295,0.0373,0.0377,0.0389,0.0263,0.0263,0.0263,0.0263,0.0024,-0.0001,-0.0025,-0.0047,-0.0046,-0.0012,0.0044,0.0145,0.0192,0.0272,0.0326,0.0449,0.0452,0.0462,0.0347,0.0347,0.0347,0.0347,0.0347,0.0003,-0.0013,-0.0026,-0.0054,-0.0023,0.0002,0.0123,0.0186,0.0372,0.0366,0.0443,0.0413,0.0476,0.0349,0.0349,0.0348,0.0348,0.0348,0.0348,0.0019,0.0005,-0.0013,-0.0032,0.0008,0.0054,0.0199,0.0295,0.0413,0.0483,0.058,0.0579,0.0486,0.0569,0.057,0.057,0.0571,0.0571,0.0571,0.0046,0.0018,0.0018,0.0006,0.0031,0.0128,0.0291,0.0414,0.057,0.0614,0.0615,0.0525,0.0518,0.0502,0.058,0.0578,0.0577,0.0576,0.0576,0.0053,0.0054,0.0046,0.0062,0.0132,0.0247,0.0383,0.0612,0.0747,0.082,0.0713,0.0707,0.072,0.071,0.07,0.0825,0.0825,0.0825,0.0825,0.0086,0.0073,0.0092,0.0125,0.0211,0.0311,0.0546,0.0706,0.0814,0.0806,0.0806,0.0722,0.0713,0.0721,0.071,0.0697,0.0823,0.0823,0.0823,0.0109,0.0099,0.0138,0.015,0.0235,0.0394,0.0585,0.068,0.0715,0.0818,0.0761,0.0834,0.0707,0.0694,0.07,0.0685,0.0662,0,0]}],[{"header":{"parameterUnit":"m.s-1","parameterCategory":2,"la1":30.2992,"la2":30.254,"lo1":-89.0895,"lo2":-89.0443,"dy":0.0025,"dx":0.0025,"nx":19,"ny":19,"refTime":"2026-04-15T09:00:00:Z","depth":"4","parameterNumber":2,"parameterNumberName":"U-component_of_CURRENTS"},"data":[0,0,0,0.0221,0.022,0.0202,0.0202,0.0294,0.0295,0,0,0,0,0,0,0,0,0,0,0,0.0256,0.0256,0.0221,0.022,0.0202,0.0202,0.0294,0.0295,0,0,0,0,0,0,0,0,0,0,0,0.0256,0.0256,0.0256,0.0219,0.0202,0.0202,0.0294,0.0283,0,0,0,0,0,0,0,0,0,0,0.0288,0.0314,0.0256,0.0256,0.0219,0.0202,0.0202,0.0282,0.0284,0.0329,0,0.0332,0,0.0297,0.0302,0.0302,0,0,0,0.0239,0.0312,0.0282,0.0256,0.0219,0.0202,0.0215,0.0282,0.0285,0.0332,0.0332,0.0334,0.0299,0.0303,0.0303,0.0399,0.0399,0,0,0.024,0.0279,0.028,0.0284,0.0224,0.0216,0.0215,0.0283,0.0308,0.0333,0.0335,0.03,0.0303,0.0304,0.0398,0.0399,0,0,0,0.023,0.028,0.0246,0.0282,0.0259,0.0215,0.0213,0.0306,0.0288,0.0336,0.0301,0.0304,0.0305,0.0398,0.0399,0.0385,0,0,0,0.0231,0.0271,0.0247,0.0273,0.0257,0.0269,0.0236,0.0284,0.0289,0.0301,0.0304,0.0306,0.0398,0.0398,0.0385,0.0381,0,0,0,0.0255,0.0274,0.0268,0.0275,0.0251,0.0266,0.0253,0.0284,0.0268,0.0302,0.0306,0.0398,0.0398,0.0385,0.038,0.0431,0,0,0,0.0298,0.0262,0.027,0.0244,0.0251,0.0209,0.0252,0.026,0.0287,0.0304,0.0398,0.0398,0.0385,0.038,0.043,0.0299,0,0,0,0.0255,0.0259,0.0239,0.0243,0.0181,0.0212,0.0202,0.0268,0.0316,0.0387,0.0388,0.0385,0.038,0.0431,0.0337,0,0,0,0,0.0226,0.0206,0.0195,0.0175,0.0161,0.0183,0.0222,0.0258,0.0343,0.033,0.0402,0.04,0.0432,0.0353,0.0402,0.0401,0.0401,0.0401,0.0401,0.0228,0.0196,0.0155,0.0127,0.0131,0.0168,0.0202,0.027,0.0325,0.0373,0.0401,0.0446,0.0361,0.0415,0.0415,0.0415,0.0415,0.0415,0.0415,0.0145,0.0115,0.012,0.0062,0.0108,0.0129,0.0211,0.0267,0.0375,0.0401,0.0434,0.0358,0.0414,0.0414,0.0414,0.0414,0.0415,0.0415,0.0415,0.014,0.0109,0.0086,0.0037,0.0072,0.0135,0.018,0.0279,0.0374,0.041,0.0395,0.0458,0.0448,0.047,0.047,0.047,0.047,0.0471,0.0471,0.0137,0.0092,0.0041,0.0015,0.0036,0.0086,0.0211,0.0247,0.0359,0.0378,0.0451,0.0465,0.0464,0.0453,0.0474,0.0473,0.0473,0.0473,0.0472,0.0087,0.0064,-0.0019,-0.0027,-0.0012,0.002,0.0145,0.0212,0.0287,0.0289,0.036,0.0365,0.0368,0.037,0.0355,0.0348,0.0346,0.0345,0,0.0073,0.0043,-0.0078,-0.0115,-0.0103,-0.0031,0.0029,0.0085,0.0185,0.0203,0.0259,0.0338,0.0341,0.034,0.0339,0.0319,0,0,0,0.0039,-0.0004,-0.0083,-0.0163,-0.0151,-0.0072,0.0036,0.0059,0.0198,0.0152,0.0305,0.0316,0.0283,0.0483,0.0501,0.0498,0.0483,0,0]},{"header":{"parameterUnit":"m.s-1","parameterCategory":2,"la1":30.2992,"la2":30.254,"lo1":-89.0895,"lo2":-89.0443,"dy":0.0025,"dx":0.0025,"nx":19,"ny":19,"refTime":"2026-04-15T09:00:00:Z","depth":"4","parameterNumber":3,"parameterNumberName":"V-component_of_CURRENTS"},"data":[0,0,0,0.0231,0.0232,0.0274,0.0275,0.0267,0.0267,0,0,0,0,0,0,0,0,0,0,0,0.0219,0.0219,0.0231,0.0232,0.0274,0.0275,0.0267,0.0267,0,0,0,0,0,0,0,0,0,0,0,0.0219,0.0219,0.0219,0.0232,0.0274,0.0275,0.0267,0.0253,0,0,0,0,0,0,0,0,0,0,0.022,0.0214,0.0219,0.0219,0.0232,0.0274,0.0275,0.0253,0.0253,0.0227,0,0.0232,0,0.0242,0.0264,0.0264,0,0,0,0.024,0.0213,0.0223,0.0219,0.0232,0.0274,0.0258,0.0254,0.0254,0.0228,0.0232,0.0233,0.0242,0.0264,0.0264,0.0208,0.0208,0,0,0.0238,0.0228,0.0222,0.0223,0.0239,0.0256,0.0259,0.0255,0.0253,0.0232,0.0233,0.0242,0.0264,0.0263,0.0209,0.0208,0,0,0,0.0225,0.0226,0.0237,0.0223,0.0232,0.0257,0.026,0.0254,0.0257,0.0233,0.0242,0.0263,0.0263,0.0209,0.0209,0.0282,0,0,0,0.0224,0.0218,0.0236,0.0231,0.0232,0.0251,0.0259,0.0258,0.0258,0.0242,0.0263,0.0262,0.0209,0.0209,0.0281,0.0335,0,0,0,0.0218,0.0217,0.0221,0.023,0.0244,0.0252,0.0256,0.0259,0.0262,0.0264,0.0262,0.021,0.0209,0.028,0.0332,0.0352,0,0,0,0.0208,0.0221,0.0221,0.0242,0.0244,0.0269,0.0257,0.0265,0.0267,0.0263,0.0209,0.0209,0.028,0.033,0.035,0.0287,0,0,0,0.0221,0.0222,0.0237,0.0238,0.0276,0.0264,0.0294,0.0283,0.0244,0.0208,0.0208,0.0282,0.0332,0.0352,0.0244,0,0,0,0,0.024,0.0253,0.0262,0.0286,0.0297,0.0322,0.0306,0.0285,0.026,0.024,0.0246,0.0275,0.0286,0.024,0.0205,0.0205,0.0205,0.0205,0.0205,0.0242,0.0267,0.0301,0.0332,0.0346,0.0352,0.0362,0.0324,0.028,0.0263,0.0308,0.034,0.029,0.0264,0.0264,0.0264,0.0264,0.0265,0.0265,0.0277,0.0297,0.0337,0.0382,0.0405,0.0428,0.0414,0.0392,0.0382,0.0329,0.0336,0.0287,0.0271,0.027,0.0269,0.0268,0.0268,0.0267,0.0267,0.0277,0.0289,0.0338,0.0409,0.0468,0.0487,0.0517,0.0505,0.0454,0.0474,0.0395,0.0386,0.0412,0.0464,0.0465,0.0465,0.0465,0.0466,0.0466,0.0248,0.0297,0.035,0.0435,0.0487,0.0544,0.0584,0.0569,0.0538,0.0479,0.0493,0.0407,0.04,0.0421,0.0471,0.047,0.0469,0.0469,0.0468,0.0231,0.026,0.0337,0.0397,0.051,0.0546,0.0612,0.0576,0.0565,0.0513,0.0465,0.0464,0.0434,0.0427,0.0448,0.0508,0.0507,0.0507,0,0.0203,0.0226,0.0319,0.0398,0.0461,0.0531,0.0521,0.0518,0.0479,0.0467,0.0518,0.0464,0.0462,0.0426,0.0418,0.044,0,0,0,0.0188,0.0222,0.0272,0.036,0.0431,0.0452,0.0506,0.0479,0.0518,0.0471,0.0492,0.0496,0.0461,0.0486,0.0437,0.0429,0.046,0,0]}]]